Bremerton, WA

12:20 PM PDT on October 14, 2019 (GMT -0700)
Bremerton National

Weather History for KPWT - August, 2019

Change the Weather History Date:

Thursday, August 8, 2019

  Actual Average Record
Temperature  
Mean Temperature 60 °F -  
Max Temperature 66 °F 76 °F 95 °F (2018)
Min Temperature 57 °F 50 °F 44 °F (1998)
Degree Days  
Heating Degree Days 4    
Growing Degree Days 10 (Base 50)    
Moisture  
Dew Point 57 °F    
Average Humidity 85    
Maximum Humidity 94    
Minimum Humidity 75    
Precipitation  
Precipitation 0.00 in - - ()
Sea Level Pressure  
Sea Level Pressure 30.03 in    
Wind  
Wind Speed 8 mph (SSW)    
Max Wind Speed 12 mph    
Max Gust Speed -    
Visibility 10 miles    
Events Thunderstorm    
Averages and records for this station are not official NWS values.
T = Trace of Precipitation, MM = Missing Value Source: NWS Daily Summary

Daily Weather History Graph

Daily Weather History Graph

Search for Another Location

Airport or City:

Astronomy

Aug. 08, 2019 Rise Set
Actual Time 5:57 AM PDT 8:34 PM PDT
Civil Twilight 5:22 AM PDT 9:09 PM PDT
Nautical Twilight 4:38 AM PDT 9:53 PM PDT
Astronomical Twilight 3:47 AM PDT 10:44 PM PDT
Moon 3:17 PM PDT (8/8) 12:25 AM PDT (8/8)
Length of Visible Light 15h 46m
Length of Day
14h 36m
First Quarter, 61% of the Moon is Illuminated
Aug 8
First Quarter
Aug 15
Full
Aug 23
Last Quarter
Aug 30
New
Sep 5
First Quarter

Hourly Weather History & Observations

Time (PDT) Temp. Dew Point Humidity Pressure Visibility Wind Dir Wind Speed Gust Speed Precip Events Conditions
12:56 AM 59.0 °F 55.0 °F 87% 30.03 in 10.0 mi SSW 11.5 mph - N/A   Overcast
1:56 AM 59.0 °F 55.0 °F 87% 30.02 in 10.0 mi SSW 9.2 mph - N/A   Overcast
2:14 AM 59.0 °F 55.4 °F 88% 29.98 in 10.0 mi SSW 11.5 mph - N/A   Overcast
2:56 AM 59.0 °F 55.0 °F 87% 30.02 in 10.0 mi SSW 11.5 mph - N/A   Overcast
3:56 AM 59.0 °F 55.0 °F 87% 30.02 in 10.0 mi SSW 8.1 mph - N/A   Overcast
4:56 AM 59.0 °F 55.9 °F 90% 30.03 in 10.0 mi SSW 6.9 mph - N/A   Overcast
5:35 AM 59.0 °F 55.4 °F 88% 29.99 in 10.0 mi SSW 6.9 mph - N/A   Overcast
5:56 AM 59.0 °F 55.9 °F 90% 30.03 in 10.0 mi South 4.6 mph - N/A   Overcast
6:56 AM 57.9 °F 55.9 °F 93% 30.04 in 6.0 mi South 3.5 mph - N/A   Overcast
7:56 AM 59.0 °F 57.0 °F 93% 30.04 in 5.0 mi SSW 4.6 mph - N/A   Overcast
8:26 AM 59.0 °F 57.2 °F 94% 30.00 in 9.0 mi SSW 3.5 mph - N/A   Overcast
8:56 AM 59.0 °F 57.0 °F 93% 30.05 in 8.0 mi South 4.6 mph - N/A   Overcast
9:56 AM 60.1 °F 57.0 °F 90% 30.05 in 8.0 mi SSE 5.8 mph - N/A   Overcast
10:56 AM 61.0 °F 55.9 °F 83% 30.06 in 10.0 mi WSW 5.8 mph - N/A   Overcast
11:56 AM 63.0 °F 57.0 °F 81% 30.06 in 10.0 mi WSW 6.9 mph - N/A   Overcast
12:42 PM 64.4 °F 57.2 °F 77% 30.00 in 10.0 mi SSW 9.2 mph - N/A   Overcast
12:56 PM 63.0 °F 55.9 °F 78% 30.05 in 10.0 mi South 6.9 mph - N/A   Overcast
1:56 PM 64.0 °F 57.0 °F 78% 30.04 in 10.0 mi SW 6.9 mph - N/A   Overcast
2:56 PM 64.9 °F 57.0 °F 75% 30.04 in 10.0 mi South 8.1 mph - N/A   Overcast
3:56 PM 64.9 °F 57.0 °F 75% 30.03 in 10.0 mi Variable 4.6 mph - N/A   Overcast
4:56 PM 64.9 °F 57.0 °F 75% 30.03 in 10.0 mi Variable 3.5 mph - N/A   Overcast
5:56 PM 64.9 °F 57.0 °F 75% - 10.0 mi SSW 9.2 mph - N/A   Overcast
6:56 PM 64.0 °F 57.9 °F 80% 30.03 in 10.0 mi South 10.4 mph - N/A   Overcast
7:56 PM 62.1 °F 57.9 °F 86% 30.03 in 10.0 mi South 4.6 mph - N/A   Overcast
8:05 PM 62.6 °F 57.2 °F 82% 29.98 in 10.0 mi South 4.6 mph - N/A Thunderstorm Overcast
8:20 PM 62.6 °F 57.2 °F 82% 29.98 in 10.0 mi South 3.5 mph - N/A   Overcast
8:56 PM 62.1 °F 57.9 °F 86% 30.04 in 10.0 mi South 3.5 mph - N/A   Overcast
9:56 PM 61.0 °F 57.0 °F 87% 30.04 in 10.0 mi South 5.8 mph - N/A   Overcast
10:56 PM 60.1 °F 57.0 °F 90% 30.04 in 10.0 mi SSW 3.5 mph - N/A   Overcast
11:19 PM 60.8 °F 57.2 °F 88% 29.99 in 10.0 mi Calm Calm - N/A   Overcast
11:56 PM 60.1 °F 57.0 °F 90% 30.04 in 10.0 mi South 4.6 mph - N/A   Overcast